This is the latest recevied weather packets stored in our database for station/object VE6CWS-7. If no packets are shown the sender has not sent any weather packets the latest 10 day(s).
| Time | Temp. | Humidity | Pressure | Rain* | Wind** | Luminosity | Snow |
|---|---|---|---|---|---|---|---|
| 1778140897 | 9.44° C | 56% | 1009.4 hPa | 0 mm | - | - | - |
| 1778139949 | 10° C | 54% | 1009.4 hPa | 0 mm | - | - | - |
| 1778139051 | 10° C | 53% | 1009.6 hPa | 0 mm | - | - | - |
| 1778138144 | 10° C | 52% | 1009.8 hPa | 0 mm | - | - | - |
| 1778137301 | 10.56° C | 48% | 1009.7 hPa | 0 mm | - | - | - |
| 1778136359 | 10.56° C | 47% | 1009.4 hPa | 0 mm | - | - | - |
| 1778135457 | 10.56° C | 45% | 1009.2 hPa | 0 mm | - | - | - |
| 1778134551 | 10.56° C | 47% | 1008.9 hPa | 0 mm | - | - | - |
| 1778133707 | 10.56° C | 45% | 1008.5 hPa | 0 mm | - | - | - |
| 1778132738 | 11.11° C | 42% | 1008.4 hPa | 0 mm | - | - | - |
| 1778131834 | 11.11° C | 41% | 1008.5 hPa | 0 mm | - | - | - |
| 1778130933 | 10.56° C | 47% | 1008.1 hPa | 0 mm | - | - | - |
| 1778130091 | 10.56° C | 47% | 1008 hPa | 0 mm | - | - | - |
| 1778129136 | 10.56° C | 46% | 1008.2 hPa | 0 mm | - | - | - |
| 1778128236 | 11.11° C | 46% | 1008.3 hPa | 0 mm | - | - | - |
| 1778127336 | 11.11° C | 44% | 1008.3 hPa | 0 mm | - | - | - |
| 1778126495 | 12.22° C | 40% | 1008.1 hPa | 0 mm | - | - | - |
| 1778125538 | 12.22° C | 38% | 1008.1 hPa | 0 mm | - | - | - |
| 1778124637 | 12.78° C | 39% | 1008.1 hPa | 0 mm | - | - | - |
| 1778123736 | 13.33° C | 35% | 1008.1 hPa | 0 mm | - | - | - |
| 1778122896 | 13.89° C | 36% | 1008 hPa | 0 mm | - | - | - |
| 1778121939 | 14.44° C | 36% | 1008 hPa | 0 mm | - | - | - |
| 1778121046 | 15° C | 37% | 1008 hPa | 0 mm | - | - | - |
| 1778120144 | 15° C | 38% | 1007.9 hPa | 0 mm | - | - | - |
| 1778119299 | 15.56° C | 38% | 1007.5 hPa | 0 mm | - | - | - |
* Rain latest hour (hover to see other rain measurements)
** Current wind speed in m/s (hover to see current wind gust speed)